Pratt, KS

11:17 PM CDT on August 24, 2016 (GMT -0500)
Pratt Industrial

Weather History for KPTT - October, 2014

Change the Weather History Date:

Saturday, October 25, 2014

  Actual Average (KP28) Record (KP28)
Temperature  
Mean Temperature 70 °F 55 °F  
Max Temperature 87 °F 68 °F 90 °F (1939)
Min Temperature 53 °F 43 °F 21 °F (1898)
Degree Days  
Heating Degree Days 0 10  
Month to date heating degree days 167  
Since 1 July heating degree days 201  
Cooling Degree Days 5 0  
Month to date cooling degree days 37  
Year to date cooling degree days 1768  
Growing Degree Days 20 (Base 50)    
Moisture  
Dew Point 52 °F    
Average Humidity 63    
Maximum Humidity 100    
Minimum Humidity 22    
Precipitation  
Precipitation 0.00 in 0.08 in 1.30 in (1899)
Month to date precipitation 2.37  
Year to date precipitation 24.82  
Snow  
Snow 0.00 in 0.00 in - ()
Month to date snowfall 0.0  
Since 1 July snowfall 0.0  
Since 1 September snowfall 0.0  
Snow Depth -    
Sea Level Pressure  
Sea Level Pressure 30.04 in    
Wind  
Wind Speed 6 mph (SSW)    
Max Wind Speed 14 mph    
Max Gust Speed 18 mph    
Visibility 9 miles    
Events      
T = Trace of Precipitation, MM = Missing Value Source: NWS Daily Summary

Daily Weather History Graph

Daily Weather History Graph

Search for Another Location

Airport or City:

Trip Planner

Search our weather history database for the weather conditions in past years. The results will help you decide how hot, cold, wet, or windy it might be!

Date:

Astronomy

Oct. 25, 2014 Rise Set
Actual Time 7:53 AM CDT 6:44 PM CDT
Civil Twilight 7:26 AM CDT 7:11 PM CDT
Nautical Twilight 6:55 AM CDT 7:41 PM CDT
Astronomical Twilight 6:25 AM CDT 8:12 PM CDT
Moon 9:32 AM CDT 8:10 PM CDT
Length of Visible Light 11h 44m
Length of Day
10h 51m
Waxing Crescent, 3% of the Moon is Illuminated
Oct 25
Waxing Crescent
Oct 30
First Quarter
Nov 6
Full
Nov 14
Last Quarter
Nov 22
New

Hourly Weather History & Observations

Time (CDT) Temp. Dew Point Humidity Pressure Visibility Wind Dir Wind Speed Gust Speed Precip Events Conditions
12:15 AM 59.0 °F 55.4 °F 88% 30.06 in 10.0 mi SSW 4.6 mph - N/A   Clear
12:35 AM 57.2 °F 55.4 °F 94% 30.06 in 7.0 mi SW 3.5 mph - N/A   Clear
12:55 AM 55.4 °F 53.6 °F 94% 30.06 in 7.0 mi SW 4.6 mph - N/A   Clear
1:15 AM 57.2 °F 55.4 °F 94% 30.06 in 10.0 mi WSW 6.9 mph - N/A   Clear
1:35 AM 57.2 °F 55.4 °F 94% 30.06 in 10.0 mi WSW 5.8 mph - N/A   Clear
1:55 AM 57.2 °F 53.6 °F 88% 30.05 in 10.0 mi SW 5.8 mph - N/A   Clear
2:15 AM 57.2 °F 53.6 °F 88% 30.05 in 10.0 mi WSW 6.9 mph - N/A   Clear
2:35 AM 57.2 °F 53.6 °F 88% 30.05 in 10.0 mi SW 5.8 mph - N/A   Clear
2:55 AM 55.4 °F 53.6 °F 94% 30.05 in 10.0 mi SW 6.9 mph - N/A   Clear
3:15 AM 57.2 °F 53.6 °F 88% 30.05 in 10.0 mi SW 6.9 mph - N/A   Clear
3:35 AM 57.2 °F 53.6 °F 88% 30.05 in 10.0 mi SW 6.9 mph - N/A   Clear
3:55 AM 55.4 °F 53.6 °F 94% 30.05 in 10.0 mi SW 5.8 mph - N/A   Clear
4:15 AM 55.4 °F 53.6 °F 94% 30.05 in 7.0 mi WSW 3.5 mph - N/A   Clear
4:35 AM 55.4 °F 53.6 °F 94% 30.05 in 7.0 mi WSW 3.5 mph - N/A   Clear
4:55 AM 55.4 °F 53.6 °F 94% 30.05 in 7.0 mi West 4.6 mph - N/A   Clear
5:15 AM 55.4 °F 53.6 °F 94% 30.05 in 7.0 mi Calm Calm - N/A   Clear
5:35 AM 55.4 °F 53.6 °F 94% 30.05 in 5.0 mi West 3.5 mph - N/A   Clear
5:55 AM 53.6 °F 53.6 °F 100% 30.06 in 5.0 mi West 4.6 mph - N/A   Clear
6:15 AM 55.4 °F 53.6 °F 94% 30.06 in 7.0 mi West 5.8 mph - N/A   Clear
6:35 AM 55.4 °F 53.6 °F 94% 30.06 in 7.0 mi West 4.6 mph - N/A   Clear
6:55 AM 53.6 °F 53.6 °F 100% 30.06 in 7.0 mi West 5.8 mph - N/A   Clear
7:15 AM 53.6 °F 51.8 °F 94% 30.07 in 7.0 mi West 6.9 mph - N/A   Clear
7:35 AM 53.6 °F 51.8 °F 94% 30.07 in 7.0 mi WNW 6.9 mph - N/A   Clear
7:55 AM 53.6 °F 51.8 °F 94% 30.07 in 7.0 mi WNW 5.8 mph - N/A   Clear
8:15 AM 53.6 °F 51.8 °F 94% 30.08 in 4.0 mi North 4.6 mph - N/A   Clear
8:35 AM 53.6 °F 51.8 °F 94% 30.08 in 5.0 mi NNE 3.5 mph - N/A   Clear
8:55 AM 55.4 °F 53.6 °F 94% 30.09 in 7.0 mi NE 4.6 mph - N/A   Clear
9:15 AM 59.0 °F 55.4 °F 88% 30.09 in 7.0 mi Calm Calm - N/A   Clear
9:35 AM 60.8 °F 55.4 °F 82% 30.09 in 10.0 mi Calm Calm - N/A   Clear
9:55 AM 62.6 °F 55.4 °F 77% 30.10 in 10.0 mi Calm Calm - N/A   Clear
10:15 AM 64.4 °F 55.4 °F 73% 30.10 in 10.0 mi Calm Calm - N/A   Clear
10:35 AM 68.0 °F 55.4 °F 64% 30.10 in 10.0 mi Calm Calm - N/A   Clear
10:55 AM 69.8 °F 55.4 °F 60% 30.10 in 10.0 mi Calm Calm - N/A   Clear
11:15 AM 71.6 °F 55.4 °F 57% 30.10 in 10.0 mi SSE 3.5 mph - N/A   Clear
11:35 AM 73.4 °F 55.4 °F 53% 30.09 in 10.0 mi South 3.5 mph - N/A   Clear
11:55 AM 75.2 °F 53.6 °F 47% 30.09 in 10.0 mi SE 3.5 mph - N/A   Clear
12:15 PM 78.8 °F 53.6 °F 42% 30.09 in 10.0 mi SSE 5.8 mph - N/A   Clear
12:35 PM 80.6 °F 50.0 °F 34% 30.09 in 10.0 mi South 4.6 mph - N/A   Clear
12:55 PM 82.4 °F 50.0 °F 32% 30.09 in 10.0 mi South 4.6 mph - N/A   Clear
1:15 PM 84.2 °F 50.0 °F 30% 30.08 in 10.0 mi SSE 8.1 mph - N/A   Clear
1:35 PM 86.0 °F 48.2 °F 27% 30.07 in 10.0 mi South 6.9 mph - N/A   Clear
1:55 PM 86.0 °F 48.2 °F 27% 30.07 in 10.0 mi South 8.1 mph - N/A   Clear
2:15 PM 86.0 °F 50.0 °F 29% 30.05 in 10.0 mi SSE 9.2 mph - N/A   Clear
2:35 PM 87.8 °F 46.4 °F 24% 30.05 in 10.0 mi South 11.5 mph - N/A   Clear
2:55 PM 87.8 °F 48.2 °F 25% 30.04 in 10.0 mi SSW 12.7 mph - N/A   Clear
3:15 PM 87.8 °F 46.4 °F 24% 30.04 in 10.0 mi SSW 12.7 mph 17.3 mph N/A   Clear
3:35 PM 87.8 °F 48.2 °F 25% 30.03 in 10.0 mi SSW 13.8 mph - N/A   Clear
3:55 PM 87.8 °F 48.2 °F 25% 30.03 in 10.0 mi SSW 11.5 mph 18.4 mph N/A   Clear
4:15 PM 87.8 °F 50.0 °F 27% 30.02 in 10.0 mi South 10.4 mph 16.1 mph N/A   Clear
4:35 PM 87.8 °F 46.4 °F 24% 30.02 in 10.0 mi SSW 10.4 mph 17.3 mph N/A   Clear
4:55 PM 87.8 °F 44.6 °F 22% 30.02 in 10.0 mi SSW 9.2 mph - N/A   Clear
5:15 PM 86.0 °F 44.6 °F 23% 30.02 in 10.0 mi SSW 12.7 mph - N/A   Clear
5:35 PM 86.0 °F 44.6 °F 23% 30.01 in 10.0 mi SSW 8.1 mph - N/A   Clear
5:55 PM 82.4 °F 51.8 °F 35% 30.01 in 10.0 mi SSE 9.2 mph - N/A   Clear
6:15 PM 80.6 °F 51.8 °F 37% 30.00 in 10.0 mi SSE 8.1 mph - N/A   Clear
6:35 PM 78.8 °F 51.8 °F 39% 30.00 in 10.0 mi SSE 9.2 mph - N/A   Clear
6:55 PM 77.0 °F 53.6 °F 44% 30.00 in 10.0 mi SSE 8.1 mph - N/A   Clear
7:15 PM 75.2 °F 53.6 °F 47% 30.00 in 10.0 mi SSE 8.1 mph - N/A   Clear
7:35 PM 75.2 °F 53.6 °F 47% 29.99 in 10.0 mi SSE 9.2 mph - N/A   Clear
7:55 PM 73.4 °F 53.6 °F 50% 29.99 in 10.0 mi SSE 9.2 mph - N/A   Clear
8:15 PM 73.4 °F 53.6 °F 50% 29.99 in 10.0 mi SSE 10.4 mph - N/A   Clear
8:35 PM 73.4 °F 53.6 °F 50% 29.98 in 10.0 mi SSE 10.4 mph - N/A   Clear
8:55 PM 73.4 °F 53.6 °F 50% 29.97 in 10.0 mi SSE 12.7 mph - N/A   Clear
9:15 PM 73.4 °F 53.6 °F 50% 29.96 in 10.0 mi South 11.5 mph - N/A   Clear
9:35 PM 73.4 °F 53.6 °F 50% 29.95 in 10.0 mi South 13.8 mph - N/A   Clear
9:55 PM 71.6 °F 53.6 °F 53% 29.95 in 10.0 mi South 13.8 mph - N/A   Clear
10:15 PM 69.8 °F 51.8 °F 53% 29.96 in 10.0 mi South 11.5 mph - N/A   Clear
10:35 PM 69.8 °F 51.8 °F 53% 29.95 in 10.0 mi South 11.5 mph - N/A   Clear
10:55 PM 68.0 °F 51.8 °F 56% 29.96 in 10.0 mi SSW 10.4 mph - N/A   Clear
11:15 PM 66.2 °F 51.8 °F 60% 29.96 in 10.0 mi South 10.4 mph - N/A   Clear
11:35 PM 64.4 °F 51.8 °F 64% 29.96 in 10.0 mi South 9.2 mph - N/A   Clear
11:55 PM 62.6 °F 51.8 °F 68% 29.96 in 10.0 mi South 8.1 mph - N/A   Clear